Location: Owatonna
(44.0840°N, 93.2260°W)
Time: 16:29:32
(UTC-05:00)

Tiangong 1 - Visible Passes

Search period start: 24 August 2016 00:00
Search period end: 03 September 2016 00:00
Orbit: 364 x 382 km, 42.8° (Epoch: 24 August)

Date Brightness Start Highest point End Pass type
(mag) Time Alt. Az. Time Alt. Az. Time Alt. Az.
24 Aug 1.0 21:12:12 10° WSW 21:15:16 63° S 21:16:48 26° E visible
24 Aug 4.2 22:48:37 10° W 22:48:47 11° W 22:48:47 11° W visible
25 Aug 1.0 21:45:24 10° W 21:48:24 68° SSW 21:48:24 68° SSW visible
26 Aug 1.0 20:42:10 10° W 20:45:15 69° S 20:47:58 13° E visible
26 Aug 3.2 22:18:38 10° W 22:19:56 22° W 22:19:56 22° W visible
27 Aug 1.1 21:15:20 10° W 21:18:24 61° S 21:19:26 35° ESE visible
28 Aug 2.3 21:48:33 10° W 21:50:53 32° SW 21:50:53 32° SW visible
29 Aug 1.4 20:45:10 10° W 20:48:12 51° SSW 20:50:21 17° ESE visible
29 Aug 4.1 22:22:12 10° WSW 22:22:18 10° WSW 22:22:18 10° WSW visible
30 Aug 2.4 21:18:26 10° W 21:21:07 27° SSW 21:21:46 24° S visible
31 Aug 1.9 20:14:55 10° W 20:17:52 41° SSW 20:20:49 10° SE visible
31 Aug 3.8 21:52:41 10° SW 21:53:13 11° SW 21:53:13 11° SW visible
01 Sep 3.1 20:48:19 10° WSW 20:50:40 20° SSW 20:52:43 11° SSE visible
